Weather History for KPQN - September, 2012

Change the Weather History Date:

Friday, September 7, 2012

  Actual Average Record
Temperature  
Mean Temperature 60 °F -  
Max Temperature 68 °F 74 °F - (-1)
Min Temperature 51 °F 52 °F - (-1)
Degree Days  
Heating Degree Days 4    
Growing Degree Days 10 (Base 50)    
Moisture  
Dew Point 46 °F    
Average Humidity 60    
Maximum Humidity 88    
Minimum Humidity 33    
Precipitation  
Precipitation 0.00 in - - ()
Sea Level Pressure  
Sea Level Pressure 30.04 in    
Wind  
Wind Speed 11 mph (North)    
Max Wind Speed 16 mph    
Max Gust Speed 25 mph    
Visibility 10 miles    
Events      
Averages and records for this station are not official NWS values.
T = Trace of Precipitation, MM = Missing Value Source: NWS Daily Summary

Daily Weather History Graph

Daily Weather History Graph

Search for Another Location

Airport or City:

Trip Planner

Search our weather history database for the weather conditions in past years. The results will help you decide how hot, cold, wet, or windy it might be!

Date:

Astronomy

Sep. 07, 2012 Rise Set
Actual Time 6:55 AM CDT 7:49 PM CDT
Civil Twilight 6:26 AM CDT 8:18 PM CDT
Nautical Twilight 5:51 AM CDT 8:53 PM CDT
Astronomical Twilight 5:15 AM CDT 9:29 PM CDT
Moon 11:30 PM CDT (9/7) 2:03 PM CDT (9/7)
Length of Visible Light 13h 52m
Length of Day
12h 53m
Waning Gibbous, 58% of the Moon is Illuminated
Sep 7
Waning Gibbous
Sep 8
Last Quarter
Sep 15
New
Sep 22
First Quarter
Sep 29
Full

Hourly Weather History & Observations

Time (CDT) Temp. Dew Point Humidity Pressure Visibility Wind Dir Wind Speed Gust Speed Precip Events Conditions
12:13 AM 60.8 °F 53.6 °F 77% 29.87 in 10.0 mi NE 8.1 mph - N/A   Clear
12:33 AM 60.8 °F 53.6 °F 77% 29.89 in 10.0 mi NNE 11.5 mph - N/A   Clear
12:53 AM 60.8 °F 53.6 °F 77% 29.89 in 10.0 mi NNE 13.8 mph 19.6 mph N/A   Clear
1:13 AM 60.8 °F 53.6 °F 77% 29.89 in 10.0 mi NNE 13.8 mph 17.3 mph N/A   Clear
1:33 AM 60.8 °F 51.8 °F 72% 29.89 in 10.0 mi NNE 10.4 mph 16.1 mph N/A   Clear
1:53 AM 60.8 °F 51.8 °F 72% 29.90 in 10.0 mi NE 15.0 mph 19.6 mph N/A   Clear
2:14 AM 60.8 °F 51.8 °F 72% 29.90 in 10.0 mi NNE 15.0 mph 23.0 mph N/A   Clear
2:33 AM 60.8 °F 51.8 °F 72% 29.90 in 10.0 mi NNE 16.1 mph 23.0 mph N/A   Clear
2:53 AM 60.8 °F 51.8 °F 72% 29.91 in 10.0 mi NE 16.1 mph 25.3 mph N/A   Clear
3:14 AM 60.8 °F 51.8 °F 72% 29.92 in 10.0 mi NE 12.7 mph 21.9 mph N/A   Clear
3:33 AM 60.8 °F 51.8 °F 72% 29.94 in 10.0 mi NE 11.5 mph 18.4 mph N/A   Clear
3:53 AM 60.8 °F 51.8 °F 72% 29.95 in 10.0 mi NNE 12.7 mph 17.3 mph N/A   Clear
4:14 AM 59.0 °F 53.6 °F 82% 29.96 in 10.0 mi NNE 9.2 mph - N/A   Clear
4:33 AM 59.0 °F 53.6 °F 82% 29.97 in 10.0 mi NNE 8.1 mph - N/A   Clear
4:53 AM 57.2 °F 51.8 °F 82% 29.97 in 10.0 mi NNE 9.2 mph - N/A   Clear
5:14 AM 57.2 °F 53.6 °F 88% 29.99 in 10.0 mi NNE 9.2 mph - N/A   Clear
5:33 AM 57.2 °F 53.6 °F 88% 30.00 in 10.0 mi NNE 9.2 mph - N/A   Clear
5:53 AM 57.2 °F 51.8 °F 82% 30.01 in 10.0 mi NNE 10.4 mph - N/A   Clear
6:14 AM 57.2 °F 51.8 °F 82% 30.02 in 10.0 mi North 6.9 mph - N/A   Clear
6:33 AM 57.2 °F 51.8 °F 82% 30.03 in 10.0 mi NNE 5.8 mph - N/A   Clear
6:53 AM 55.4 °F 51.8 °F 88% 30.03 in 10.0 mi North 6.9 mph - N/A   Clear
7:13 AM 55.4 °F 50.0 °F 82% 30.04 in 10.0 mi North 6.9 mph - N/A   Clear
7:33 AM 55.4 °F 51.8 °F 88% 30.04 in 10.0 mi North 8.1 mph - N/A   Clear
7:53 AM 55.4 °F 51.8 °F 88% 30.04 in 10.0 mi North 10.4 mph 16.1 mph N/A   Clear
8:13 AM 55.4 °F 51.8 °F 88% 30.04 in 10.0 mi North 9.2 mph - N/A   Clear
8:33 AM 57.2 °F 51.8 °F 82% 30.05 in 10.0 mi North 10.4 mph 16.1 mph N/A   Scattered Clouds
8:53 AM 57.2 °F 51.8 °F 82% 30.05 in 10.0 mi North 9.2 mph - N/A   Clear
9:13 AM 60.8 °F 51.8 °F 72% 30.05 in 10.0 mi NNE 12.7 mph 16.1 mph N/A   Clear
9:33 AM 60.8 °F 51.8 °F 72% 30.06 in 10.0 mi North 10.4 mph 16.1 mph N/A   Clear
9:53 AM 60.8 °F 50.0 °F 68% 30.06 in 10.0 mi NNE 9.2 mph 16.1 mph N/A   Clear
10:13 AM 62.6 °F 48.2 °F 59% 30.07 in 10.0 mi NNE 11.5 mph 17.3 mph N/A   Clear
10:33 AM 64.4 °F 48.2 °F 56% 30.07 in 10.0 mi North 11.5 mph 17.3 mph N/A   Scattered Clouds
10:53 AM 64.4 °F 48.2 °F 56% 30.07 in 10.0 mi NNE 13.8 mph 21.9 mph N/A   Scattered Clouds
11:13 AM 64.4 °F 46.4 °F 52% 30.07 in 10.0 mi North 12.7 mph 21.9 mph N/A   Scattered Clouds
11:33 AM 64.4 °F 46.4 °F 52% 30.08 in 10.0 mi NNE 12.7 mph 24.2 mph N/A   Scattered Clouds
11:53 AM 64.4 °F 44.6 °F 49% 30.08 in 10.0 mi NNE 11.5 mph 23.0 mph N/A   Mostly Cloudy
12:13 PM 66.2 °F 44.6 °F 46% 30.08 in 10.0 mi North 13.8 mph 23.0 mph N/A   Mostly Cloudy
12:33 PM 64.4 °F 42.8 °F 45% 30.08 in 10.0 mi NNE 15.0 mph 23.0 mph N/A   Scattered Clouds
12:53 PM 66.2 °F 42.8 °F 43% 30.08 in 10.0 mi North 13.8 mph 21.9 mph N/A   Mostly Cloudy
1:13 PM 66.2 °F 41.0 °F 40% 30.08 in 10.0 mi North 12.7 mph 18.4 mph N/A   Mostly Cloudy
1:33 PM 66.2 °F 42.8 °F 43% 30.07 in 10.0 mi North 10.4 mph 23.0 mph N/A   Mostly Cloudy
1:53 PM 66.2 °F 42.8 °F 43% 30.08 in 10.0 mi North 13.8 mph 21.9 mph N/A   Overcast
2:13 PM 68.0 °F 42.8 °F 40% 30.08 in 10.0 mi North 12.7 mph 24.2 mph N/A   Mostly Cloudy
2:33 PM 68.0 °F 39.2 °F 35% 30.08 in 10.0 mi North 15.0 mph 21.9 mph N/A   Mostly Cloudy
2:58 PM 66.2 °F 39.2 °F 37% 30.08 in 10.0 mi North 12.7 mph 20.7 mph N/A   Mostly Cloudy
3:13 PM 68.0 °F 39.2 °F 35% 30.07 in 10.0 mi North 13.8 mph 23.0 mph N/A   Mostly Cloudy
3:33 PM 68.0 °F 39.2 °F 35% 30.08 in 10.0 mi NNW 12.7 mph 19.6 mph N/A   Scattered Clouds
3:53 PM 66.2 °F 39.2 °F 37% 30.08 in 10.0 mi North 15.0 mph 23.0 mph N/A   Mostly Cloudy
4:13 PM 66.2 °F 39.2 °F 37% 30.08 in 10.0 mi North 11.5 mph 24.2 mph N/A   Mostly Cloudy
4:33 PM 66.2 °F 39.2 °F 37% 30.08 in 10.0 mi North 12.7 mph 23.0 mph N/A   Mostly Cloudy
4:53 PM 68.0 °F 37.4 °F 33% 30.08 in 10.0 mi North 11.5 mph 16.1 mph N/A   Mostly Cloudy
5:13 PM 66.2 °F 39.2 °F 37% 30.09 in 10.0 mi North 10.4 mph 18.4 mph N/A   Mostly Cloudy
5:33 PM 66.2 °F 39.2 °F 37% 30.09 in 10.0 mi North 12.7 mph 23.0 mph N/A   Overcast
5:53 PM 64.4 °F 39.2 °F 40% 30.09 in 10.0 mi North 10.4 mph 18.4 mph N/A   Overcast
6:13 PM 66.2 °F 39.2 °F 37% 30.09 in 10.0 mi North 11.5 mph 23.0 mph N/A   Overcast
6:33 PM 64.4 °F 39.2 °F 40% 30.10 in 10.0 mi North 10.4 mph - N/A   Mostly Cloudy
6:54 PM 64.4 °F 41.0 °F 42% 30.10 in 10.0 mi North 6.9 mph 16.1 mph N/A   Scattered Clouds
7:13 PM 62.6 °F 39.2 °F 42% 30.10 in 10.0 mi North 9.2 mph 17.3 mph N/A   Scattered Clouds
7:33 PM 62.6 °F 39.2 °F 42% 30.10 in 10.0 mi North 8.1 mph - N/A   Scattered Clouds
7:53 PM 60.8 °F 39.2 °F 45% 30.10 in 10.0 mi North 6.9 mph - N/A   Scattered Clouds
8:13 PM 60.8 °F 39.2 °F 45% 30.10 in 10.0 mi North 4.6 mph - N/A   Scattered Clouds
8:33 PM 57.2 °F 41.0 °F 55% 30.11 in 10.0 mi North 3.5 mph - N/A   Scattered Clouds
8:53 PM 57.2 °F 41.0 °F 55% 30.12 in 10.0 mi NW 3.5 mph - N/A   Clear
9:13 PM 57.2 °F 41.0 °F 55% 30.11 in 10.0 mi NNW 4.6 mph - N/A   Clear
9:33 PM 57.2 °F 41.0 °F 55% 30.12 in 10.0 mi NNW 5.8 mph - N/A   Clear
9:53 PM 55.4 °F 42.8 °F 63% 30.12 in 10.0 mi NNW 5.8 mph - N/A   Clear
10:13 PM 55.4 °F 42.8 °F 63% 30.12 in 10.0 mi NNW 5.8 mph - N/A   Clear
10:54 PM 53.6 °F 42.8 °F 67% 30.13 in 10.0 mi NNW 4.6 mph - N/A   Clear
11:53 PM 51.8 °F 41.0 °F 67% 30.13 in 10.0 mi NW 4.6 mph - N/A   Clear